This is the latest recevied weather packets stored in our database for station/object OE6CUD-6. If no packets are shown the sender has not sent any weather packets the latest 10 day(s).
| Time | Temp. | Humidity | Pressure | Rain* | Wind** | Luminosity | Snow |
|---|---|---|---|---|---|---|---|
| 1777580079 | 6.67° C | 64% | 1026.8 hPa | 0 mm | - | 0 W/m² | - |
| 1777577952 | 7.22° C | 60% | 1026.5 hPa | 0 mm | - | 0 W/m² | - |
| 1777577349 | 7.78° C | 59% | 1026.5 hPa | 0 mm | - | 0 W/m² | - |
| 1777576143 | 8.89° C | 54% | 1026.4 hPa | 0 mm | - | 0 W/m² | - |
| 1777575546 | 9.44° C | 51% | 1026.5 hPa | 0 mm | - | 0 W/m² | - |
| 1777574644 | 10.56° C | 48% | 1026.4 hPa | 0 mm | - | 0 W/m² | - |
| 1777571889 | 11.67° C | 45% | 1026 hPa | 0 mm | - | 7 W/m² | - |
| 1777569784 | 12.78° C | 43% | 1025.6 hPa | 0 mm | - | 19 W/m² | - |
| 1777565850 | 14.44° C | 39% | 1025.5 hPa | 0 mm | - | 248 W/m² | - |
| 1777564349 | 15° C | 39% | 1025.6 hPa | 0 mm | - | 320 W/m² | - |
| 1777561051 | 15.56° C | 38% | 1025.8 hPa | 0 mm | - | 462 W/m² | - |
| 1777560008 | 16.11° C | 36% | 1026 hPa | 0 mm | - | 522 W/m² | - |
| 1777557435 | 16.11° C | 38% | 1026 hPa | 0 mm | - | 621 W/m² | - |
| 1777555929 | 16.11° C | 38% | 1026.2 hPa | 0 mm | - | 668 W/m² | - |
| 1777555630 | 16.11° C | 38% | 1026.4 hPa | 0 mm | - | 677 W/m² | - |
| 1777552749 | 16.11° C | 41% | 1026.8 hPa | 0 mm | - | 763 W/m² | - |
| 1777552293 | 16.11° C | 41% | 1026.7 hPa | 0 mm | - | 763 W/m² | - |
| 1777551375 | 15.56° C | 39% | 1026.9 hPa | 0 mm | - | 786 W/m² | - |
| 1777550468 | 15.56° C | 38% | 1027 hPa | 0 mm | - | 796 W/m² | - |
| 1777548666 | 15.56° C | 38% | 1027.4 hPa | 0 mm | - | 816 W/m² | - |
| 1777548061 | 15.56° C | 38% | 1027.4 hPa | 0 mm | - | 823 W/m² | - |
| 1777546852 | 14.44° C | 38% | 1027.4 hPa | 0 mm | - | 828 W/m² | - |
| 1777546548 | 14.44° C | 40% | 1027.3 hPa | 0 mm | - | 826 W/m² | - |
| 1777546408 | 15° C | 40% | 1027.5 hPa | 0 mm | - | 819 W/m² | - |
| 1777545345 | 13.89° C | 37% | 1027.5 hPa | 0 mm | - | 654 W/m² | - |
* Rain latest hour (hover to see other rain measurements)
** Current wind speed in m/s (hover to see current wind gust speed)